Regional Weather Roundup
Issued by NWS Goodland, KS

Home | Current Version | Previous Version | Text Only | Print | Product List | Glossary On
Versions: 1 2 3 4 5 6 7 8 9 10 11 12 13 14 15 16 17 18 19 20 21 22 23 24 25 26 27 28 29 30 31 32 33 34 35 36 37 38 39 40 41 42 43 44 45 46 47 48 49 50
000
ASUS43 KGLD 250359
RWRGLD

GOODLAND FORECAST AREA HOURLY WEATHER ROUNDUP
NATIONAL WEATHER SERVICE GOODLAND KS
900 PM MST SAT JAN 24 2015

...OFFICIAL OBSERVATIONS...

CITY           SKY/WX    TMP DP  RH WIND       PRES   REMARKS
GOODLAND KS    CLOUDY    44  33  65 NW30G43   30.01R
HILL CITY KS   MOCLDY    49  33  54 NW20G30   29.87R
IMPERIAL NEB   CLOUDY    43  31  62 NW24G39   29.95R
MCCOOK NEB     CLOUDY    48  35  60 NW28G38   29.89R
AKRON CO       CLOUDY    37  32  82 NW28G39   30.10R
BURLINGTON CO  CLOUDY    43  30  60 N28G38    30.06R
LIMON CO       CLOUDY    40  25  55 N16       30.10R
$$

...UNOFFICIAL OBSERVATIONS...

CITY           SKY/WX    TMP DP  RH WIND       PRES   REMARKS
COLBY KS       CLOUDY    45  37  76 W29G38    29.93F
GOVE KS          N/A     51  32  48 MISG        N/A
NORTON KS      PTCLDY    45  30  57 W20       29.84S
SHARON SPRINGS   N/A     46  34  64 N20         N/A
KIT CARSON CO    N/A     47  31  54 MISG        N/A
YUMA CO          N/A     38  31  77 NW25        N/A
$$


USA.gov is the U.S. government's official web portal to all federal, state and local government web resources and services.